TIMRA/MIDLANDA current weather conditions

sailwx.info

Wind from 140 at 13 knots

Air temperature 5.0° C
Visibility: greater than 5.4 NM
Dewpoint 5.0° C

Last reported at 2017-Nov-23 22:50 UTC.
Time now 2017-Nov-24 00:15 UTC

Location: N 62°32' E 017°27'.
View on Google Maps.

See reports from other nearby stations

  
Tides and Currents Weather Stations Pressure Air Temp Water Temp Dewpoint Dewpoint Depression Visibility Wind Speed Wind Dir Waves Ship Positions
date/time (UTC)wind fromknots sea level pressurealtimeterstation pressurevisibilityair tempwater tempwave heightnotes
2017-Nov-23 22:50 140 13 5.4 5.0
2017-Nov-23 22:20 140 14 5.4 5.0
2017-Nov-23 21:50 140 13 5.4 5.0
2017-Nov-23 21:20 140 13 5.4 5.0
2017-Nov-23 20:50 140 15 4.9 5.0 Light drizzle.
2017-Nov-23 20:20 140 13 4.3 5.0 Drizzle.
2017-Nov-23 19:50 130 11 5.4 5.0 Light drizzle.
2017-Nov-23 19:20 140 11 5.4 5.0 Light rain.
2017-Nov-23 18:50 140 13 5.4 5.0 Light rain.
2017-Nov-23 18:20 130 11 5.4 5.0
2017-Nov-23 17:50 120 7 5.4 5.0
2017-Nov-23 17:20 130 11 5.4 5.0
2017-Nov-23 16:50 130 13 5.4 5.0
2017-Nov-23 16:20 130 13 5.4 5.0
2017-Nov-23 15:50 130 14 4.3 5.0 Mist.
2017-Nov-23 15:20 130 14 2.7 5.0 Mist.
2017-Nov-23 14:50 130 13 2.6 5.0 Mist.
2017-Nov-23 14:20 130 13 2.4 5.0 Mist.
2017-Nov-23 13:50 130 13 2.2 5.0 Light rain.
2017-Nov-23 13:20 130 12 2.4 5.0 Light rain.
2017-Nov-23 12:50 130 13 1.8 5.0 Mist.
2017-Nov-23 12:20 130 13 1.0 5.0 Mist.
2017-Nov-23 11:50 130 13 0.8 4.0 Mist.
2017-Nov-23 11:20 130 12 0.8 5.0 Mist.
2017-Nov-23 10:50 130 13 2.7 4.0 Light drizzle.
2017-Nov-23 10:20 120 9 4.3 4.0 Light rain.
2017-Nov-23 09:50 120 13 3.2 4.0 Light rain.
2017-Nov-23 09:20 130 17 2.7 3.0 Rain.
2017-Nov-23 08:50 120 17 3.2 3.0 Rain.
2017-Nov-23 08:20 120 17 3.8 3.0 Light rain.
2017-Nov-23 07:50 110 14 1.8 2.0 Rain.
2017-Nov-23 07:20 110 14 2.1 1.0 Drizzle snow.
2017-Nov-23 06:50 110 14 0.6 1.0 Light snow.
2017-Nov-23 06:20 110 13 1.5 1.0 Light snow.
2017-Nov-23 05:50 120 15 1.1 1.0 Light drizzle snow.
2017-Nov-23 05:20 120 15 gusting 27 1.7 1.0 Light drizzle snow.
2017-Nov-23 04:50 120 18 gusting 29 1.8 1.0 Rain.
2017-Nov-23 04:20 120 19 gusting 29 1.4 1.0 Light rain snow.
2017-Nov-23 03:50 120 17 1.7 1.0 Rain.
2017-Nov-23 03:20 120 17 1.7 1.0 Light rain snow.
2017-Nov-23 02:50 120 24 gusting 34 1.7 1.0 Light rain.
2017-Nov-23 02:20 120 20 1.8 1.0 Light rain.
2017-Nov-23 01:50 130 22 2.7 2.0 Light rain.
2017-Nov-23 01:20 120 20 gusting 33 3.8 2.0 Light rain.
2017-Nov-23 00:50 120 20 2.7 2.0 Light rain.
2017-Nov-23 00:20 120 20 2.3 1.0 Light drizzle snow.
2017-Nov-22 23:50 120 19 gusting 31 2.3 1.0 Light drizzle snow.
2017-Nov-22 23:20 120 17 1.2 1.0 Light snow.
2017-Nov-22 22:50 120 19 2.7 1.0 Light drizzle snow.
2017-Nov-22 22:20 120 19 3.2 1.0 Light rain.
2017-Nov-22 21:50 120 17 5.4 2.0 Drizzle.
2017-Nov-22 21:20 110 14 5.4 2.0 Light drizzle.
2017-Nov-22 20:50 110 13 5.4 2.0
2017-Nov-22 20:20 110 13 5.4 2.0
2017-Nov-22 19:50 120 12 5.4 1.0 Snow grains.
2017-Nov-22 19:20 120 19 3.2-0.0 Light drizzle snow.
2017-Nov-22 18:50 120 14 5.4 2.0
2017-Nov-22 18:20 120 13 5.4 2.0 Snow grains.
2017-Nov-22 17:50 120 12 5.4 2.0
2017-Nov-22 17:20 120 11 5.4 2.0
2017-Nov-22 16:50 110 11 5.4 2.0
2017-Nov-22 16:20 120 12 5.4 1.0
2017-Nov-22 15:50 110 8 5.4 1.0
2017-Nov-22 15:20 110 6 5.4 1.0
2017-Nov-22 14:50 110 6 5.4 1.0
2017-Nov-22 14:20 100 4 5.4-0.0
2017-Nov-22 13:50 110 6 5.4 1.0
2017-Nov-22 13:20 110 4 4.3-0.0 Light snow showers.
2017-Nov-22 12:50 170 4 4.3-1.0 Light snow showers.
2017-Nov-22 12:20 5.4-1.0
2017-Nov-22 11:50 120 2 5.4-1.0 Snow grains.
2017-Nov-22 11:20 270 0 5.4-2.0
2017-Nov-22 10:50 310 1 5.4-2.0 Light snow.
2017-Nov-22 10:20 5.4-3.0
2017-Nov-22 09:50 280 1 5.4-3.0
2017-Nov-22 09:20 320 1 5.4-3.0
2017-Nov-22 08:50 290 1 5.4-2.0
2017-Nov-22 08:20 310 2 5.4-2.0
2017-Nov-22 07:50 350 2 5.4-3.0
2017-Nov-22 07:20 240 2 5.4-3.0
2017-Nov-22 06:50 5.4-3.0
2017-Nov-22 06:20 5.4-2.0
2017-Nov-22 05:50 240 2 5.4-2.0 Light snow.
2017-Nov-22 05:20 5.4-2.0 Snow grains.
2017-Nov-22 04:50 030 5 0.4-2.0 Snow.
2017-Nov-22 04:20 0.5-3.0 Light snow.
2017-Nov-22 03:50 330 5 5.4-5.0
2017-Nov-22 03:20 5.4-5.0
2017-Nov-22 02:50 310 2 5.4-4.0
2017-Nov-22 02:20 300 2 5.4-5.0
2017-Nov-22 01:50 270 2 5.4-4.0 Light snow.
2017-Nov-22 01:20 330 5 3.2-4.0 Light snow.
2017-Nov-22 00:50 310 6 5.4-4.0
2017-Nov-22 00:20 280 5 5.4-5.0